Regional Weather Roundup
Issued by NWS

Home | Current Version | Previous Version | Graphics & Text | Print | Product List | Glossary On
Versions: 1 2 3 4 5 6 7 8 9 10 11 12 13 14 15 16 17 18 19 20 21 22 23 24 25 26 27 28 29 30 31 32 33 34 35 36 37 38 39 40 41 42 43 44 45 46 47 48 49 50
000
ASUS43 KOAX 302202
RWRNE

WEATHER ROUNDUP FOR NEBRASKA
NATIONAL WEATHER SERVICE OMAHA NE
500 PM CDT THU OCT 30 2014

NOTES: SATELLITE DATA IS BEING USED TO AUGMENT CLOUD COVER ABOVE
       12000 FEET.
       "FAIR" INDICATES FEW OR NO CLOUDS BELOW 12,000 FEET WITH NO
       SIGNIFICANT WEATHER AND/OR OBSTRUCTIONS TO VISIBILITY.

  * THESE STATIONS DO NOT REPORT WEATHER SUCH AS RAIN...SNOW OR FOG.

NEZ001>004-019>022-054>056-302300-
NEBRASKA PANHANDLE

CITY           SKY/WX    TMP DP  RH WIND       PRES   REMARKS
SCOTTSBLUFF    SUNNY     64  27  24 N14       30.30S
ALLIANCE       SUNNY     60  31  33 N15       30.30R
CHADRON        SUNNY     57  34  41 NE14      30.32R
KIMBALL        SUNNY     59  27  30 N13G18    30.31S
SIDNEY         SUNNY     60  30  32 N14       30.32R
$$

NEZ057>060-069>072-079>082-302300-
SOUTHWEST NEBRASKA

CITY           SKY/WX    TMP DP  RH WIND       PRES   REMARKS
NORTH PLATTE   SUNNY     62  30  29 N18G29    30.27R
IMPERIAL       MOSUNNY   64  30  27 N17G25    30.27S
LEXINGTON      SUNNY     63  32  31 N23       30.24R
MCCOOK         SUNNY     67  29  24 N16       30.25R
OGALLALA       SUNNY     65  32  28 N14G20    30.28R
$$

NEZ005>010-023>029-035>040-094-302300-
NORTH CENTRAL NEBRASKA

CITY           SKY/WX    TMP DP  RH WIND       PRES   REMARKS
VALENTINE      SUNNY     51  31  46 N17G23    30.33R
AINSWORTH      SUNNY     49  32  51 N18G25    30.31R
BROKEN BOW     SUNNY     59  34  39 N24G33    30.25R
O`NEILL        MOSUNNY   49  37  63 N20G26    30.30R
ORD            SUNNY     57  34  41 N15G31    30.24R
THEDFORD       SUNNY     57  33  39 N16       30.30R
$$

NEZ041-046>049-061>064-073>077-083>087-302300-
SOUTH CENTRAL NEBRASKA

CITY           SKY/WX    TMP DP  RH WIND       PRES   REMARKS
GRAND ISLAND   SUNNY     60  34  37 N25G31    30.21R
AURORA         SUNNY     60  32  34 N17G29    30.20R
HASTINGS       SUNNY     61  32  33 N24G31    30.19R
HEBRON         SUNNY     63  32  31 N13G26    30.16R
HOLDREGE       SUNNY     62  30  30 N16G32    30.22R
KEARNEY *      SUNNY     63  30  29 NW23G32   30.22R
YORK           SUNNY     59  37  44 N16G22    30.18R
$$

NEZ011>018-030>034-042>045-302300-
NORTHEAST NEBRASKA

CITY           SKY/WX    TMP DP  RH WIND       PRES   REMARKS
NORFOLK        SUNNY     50  37  61 N28G35    30.22R
ALBION         SUNNY     54  35  47 N22G33    30.22R
BLAIR          SUNNY     58  39  48 NW21G28   30.12R
FREMONT        SUNNY     58  38  48 NW22G30   30.16R
TEKAMAH        SUNNY     59  40  49 NW24G30   30.14R
WAYNE          SUNNY     49  38  65 NW22G28   30.22R
$$

NEZ050>053-065>068-078-088>093-302300-
SOUTHEAST NEBRASKA

CITY           SKY/WX    TMP DP  RH WIND       PRES   REMARKS
LINCOLN        SUNNY     61  39  44 NW20G26   30.16R
OMAHA EPPLEY   MOSUNNY   59  39  47 NW26G32   30.12R
BEATRICE       SUNNY     62  40  45 N18G29    30.13R
FALLS CITY     SUNNY     64  40  41 NW17G30   30.08R
NEBRASKA CITY  SUNNY     61  34  36 N15G26    30.11R
PLATTSMOUTH    SUNNY     59  37  42 NW17G25   30.11R
$$

NEZ044-045-051>053-067-302300-
OMAHA AREA

CITY           SKY/WX    TMP DP  RH WIND       PRES   REMARKS
OMAHA EPPLEY   MOSUNNY   59  39  47 NW26G32   30.12R
BLAIR          SUNNY     58  39  48 NW21G28   30.12R
FREMONT        SUNNY     58  38  48 NW22G30   30.16R
MILLARD        SUNNY     59  40  48 NW17G29   30.13R
OFFUTT AFB     SUNNY     60  40  47 NW16G25   30.11R
PLATTSMOUTH    SUNNY     59  37  42 NW17G25   30.11R
WAHOO          FAIR      59  37  43 N17G26    30.15R
$$



USA.gov is the U.S. government's official web portal to all federal, state and local government web resources and services.